Wind_Speed
23 21 17 16 18 19 17 14 12 12 13 12 11 11 12 13 13 13 14 15 11 11 11 10 9 8 5 5 6 10 11 13 15 17 17 17 16 18 19 20 16 16 16
28 22 17 17 18 18 16 14 11 10 12 13 12 11 12 12 12 11 12 13 12 10 10 10 9 8 5 7 9 12 12 16 18 17 17 16 15 14 12 11 16 16 16
20 20 17 17 17 16 14 11 10 11 13 14 13 12 11 11 10 9 11 9 10 8 9 9 9 8 6 8 11 10 13 17 18 17 18 15 14 13 13 15 15 17 16
19 18 17 18 17 15 13 11 11 11 12 14 13 12 12 9 9 10 8 8 7 6 7 8 8 7 7 8 11 9 13 16 15 14 16 15 13 12 13 14 16 17 16
20 18 17 17 17 15 13 11 11 12 13 14 13 11 10 10 8 10 9 6 5 5 6 7 7 7 7 8 10 10 13 14 16 13 10 15 14 12 13 13 15 16 16
20 21 16 15 16 16 15 13 12 13 14 13 13 12 10 9 9 8 7 6 4 4 5 7 8 9 9 9 10 9 14 14 12 8 16 14 17 14 14 15 16 15 15
27 22 17 14 16 14 14 13 14 13 14 14 13 12 11 9 9 8 7 6 4 4 5 6 8 10 9 10 10 11 14 13 8 14 16 13 13 15 14 14 15 16 15
23 19 17 16 14 11 12 13 13 13 14 14 13 12 11 10 9 8 7 6 5 5 5 6 8 9 10 11 11 12 15 14 9 11 13 13 16 17 15 14 14 14 15
20 21 18 16 14 11 12 13 14 14 14 15 14 12 11 9 9 9 9 7 5 7 6 7 9 9 10 9 11 14 17 15 8 13 14 15 16 17 15 14 14 14 13
20 18 18 15 14 13 13 13 14 14 15 15 15 14 12 11 10 9 8 8 7 7 7 8 9 10 10 11 12 13 16 14 10 9 16 15 18 16 15 16 15 14 13
15 18 16 16 16 16 16 17 17 16 16 15 14 14 13 12 11 11 10 9 8 8 8 9 10 10 11 12 12 14 15 15 8 3 20 15 17 17 16 15 15 14 14
10 12 14 15 17 17 17 16 16 19 21 20 18 16 14 12 11 9 8 9 10 8 9 9 10 10 10 10 13 14 16 12 12 6 13 16 15 16 16 15 14 16 14
11 15 16 16 17 15 11 14 17 17 19 21 20 18 15 8 8 9 9 9 9 8 8 10 12 13 12 14 15 16 17 16 10 10 14 15 15 15 15 15 16 15 14
20 17 16 16 14 9 10 3 12 18 18 21 22 18 19 18 12 10 11 8 6 10 11 12 11 10 11 14 16 16 18 16 14 13 14 14 15 15 15 14 15 15 15
13 16 15 11 10 11 16 29 30 18 20 19 19 18 16 12 10 13 15 12 9 10 9 10 11 11 11 13 15 17 18 18 21 14 16 16 16 17 17 16 15 15 15
15 14 13 12 10 11 12 17 18 20 19 12 15 15 21 19 12 13 15 16 10 9 11 10 10 9 10 11 11 12 13 13 12 16 17 16 17 17 18 16 16 16 15
18 16 15 14 12 12 12 12 12 12 10 12 18 10 15 18 19 16 14 16 12 10 10 11 9 9 10 8 12 10 12 13 13 16 14 16 17 18 20 19 17 15 16
19 19 18 14 14 12 11 11 9 10 11 10 11 16 19 18 15 16 15 14 16 11 10 13 12 9 10 9 9 11 13 13 11 12 15 11 16 20 21 21 18 17 18
13 18 16 14 16 16 12 10 10 10 12 12 14 20 20 17 17 19 17 16 16 15 11 14 15 12 11 11 10 10 9 10 12 11 13 10 16 15 17 19 16 16 19
16 14 13 12 12 12 11 12 11 11 13 12 13 14 20 20 20 20 19 18 17 17 16 15 15 14 11 13 13 10 12 11 11 14 13 9 11 14 17 20 19 17 20
20 16 13 12 12 13 13 14 13 14 13 14 12 9 15 19 19 22 21 19 16 19 20 17 16 15 14 10 9 7 9 9 11 12 14 15 11 14 16 22 15 13 17
20 14 11 11 12 12 11 13 13 11 13 16 16 18 19 15 20 20 23 20 20 19 19 20 19 17 14 11 5 2 2 7 16 14 13 13 13 16 17 20 20 24 28
19 14 14 13 11 11 10 9 11 12 15 16 19 18 16 20 20 21 21 25 21 20 21 21 20 20 16 13 14 6 2 3 1 8 13 15 12 15 17 17 18 21 23
11 12 13 9 9 6 5 7 8 12 15 15 16 17 18 19 19 20 21 24 24 21 23 21 23 23 16 13 14 20 15 4 1 2 3 10 11 14 15 16 17 18 19
10 17 14 11 4 2 2 6 6 8 14 16 17 16 16 17 17 20 22 24 24 24 24 25 22 23 23 24 16 9 16 11 10 5 1 2 9 11 14 15 13 12 13
18 18 12 8 6 1 2 6 7 9 14 13 15 11 14 16 16 18 21 23 24 24 24 24 27 24 25 25 15 15 13 8 3 3 1 4 7 10 16 16 15 14 14
Wind_Direction
139 147 146 147 141 143 142 143 142 145 141 136 134 124 119 116 116 116 110 110 112 122 120 127 127 122 113 110 129 120 131 123 123 123 118 112 111 111 112 110 108 104 105
139 145 148 150 147 147 150 154 157 162 155 152 145 135 127 123 120 123 129 115 113 122 121 126 128 129 115 107 124 132 134 130 128 124 120 118 117 115 115 117 124 114 113
134 144 146 150 151 151 151 156 167 170 167 163 154 143 134 129 123 129 129 128 121 124 131 135 135 133 124 123 128 138 140 137 138 136 124 117 126 111 113 127 121 117 119
136 139 140 148 156 153 147 153 162 167 174 170 160 151 140 138 135 138 140 131 128 139 145 145 151 150 143 140 135 150 147 144 142 141 140 132 129 128 124 125 121 126 128
137 140 150 150 157 150 138 142 156 165 172 173 164 156 149 147 147 144 152 150 156 165 162 157 168 168 163 157 152 159 158 149 145 148 149 142 129 138 138 132 129 129 127
139 140 148 154 159 150 141 138 151 163 171 174 169 162 159 152 157 159 155 163 188 172 170 165 178 171 172 170 167 173 159 161 155 148 137 137 147 146 140 137 139 137 139
113 126 141 153 159 160 151 149 152 161 170 173 169 170 165 166 171 165 170 177 178 197 182 179 176 169 178 176 178 174 174 171 173 165 149 153 151 143 146 147 146 143 142
123 125 128 141 149 166 165 160 154 159 167 171 178 176 176 182 179 175 172 182 187 204 187 196 186 177 184 186 184 189 183 182 166 167 146 159 150 150 150 153 152 150 143
128 125 134 138 149 164 165 163 163 167 175 177 181 185 184 190 186 185 192 199 196 203 188 197 193 186 190 192 190 197 189 200 192 176 164 160 160 155 157 159 159 157 152
133 134 134 149 154 163 164 165 165 171 177 186 191 193 188 184 191 207 205 211 210 211 198 199 208 196 189 196 194 195 198 205 215 185 155 175 163 161 161 161 164 164 164
134 136 148 159 166 171 172 172 170 176 181 187 188 195 199 197 200 207 207 223 217 209 204 203 209 202 193 194 197 198 203 215 229 144 171 172 167 166 166 169 171 172 169
157 141 152 165 175 184 179 179 174 182 186 192 190 204 198 196 200 201 214 220 228 205 205 202 209 196 200 196 201 201 206 201 214 190 171 163 172 169 171 178 178 176 176
160 159 171 178 188 189 176 183 185 203 206 200 200 200 205 203 190 183 214 224 226 219 207 207 205 202 207 201 200 201 201 222 219 182 181 180 183 178 178 187 187 182 182
172 172 178 185 196 180 178 200 223 202 218 211 212 216 215 222 229 208 210 207 216 217 210 199 206 209 227 222 200 199 206 220 207 207 187 186 188 186 184 192 194 189 191
144 145 159 173 182 162 160 175 224 213 215 216 207 220 214 224 245 229 224 205 222 221 221 217 216 220 219 218 216 219 208 221 211 205 207 209 195 195 191 195 200 200 198
152 157 165 180 185 159 167 171 197 214 219 222 234 216 224 231 242 225 224 219 223 235 225 210 206 218 221 231 232 226 209 214 215 219 206 211 211 203 199 202 206 209 206
160 165 166 178 186 185 179 185 202 220 229 182 212 228 237 240 229 239 230 220 213 237 229 217 202 213 216 226 228 218 212 203 213 218 207 212 205 207 204 206 212 213 214
161 164 170 185 192 198 204 200 204 218 233 237 246 228 233 243 247 233 229 221 213 213 223 219 201 205 209 217 217 222 225 216 219 216 210 195 215 204 206 210 215 218 218
163 164 175 184 185 196 208 210 218 224 231 238 234 223 221 224 242 236 230 226 219 213 228 223 211 203 221 235 228 225 237 218 210 218 226 207 208 197 211 211 215 230 231
174 173 182 186 193 192 206 212 225 229 231 237 245 233 216 227 230 231 231 226 221 216 215 223 221 219 219 239 234 235 233 212 217 226 232 217 209 208 205 207 204 223 233
168 172 182 193 194 196 206 211 228 236 236 242 241 236 233 236 232 227 226 230 224 209 213 216 217 219 232 216 231 231 244 239 228 239 234 235 222 213 209 207 209 222 242
158 166 187 205 205 210 223 235 242 251 251 252 262 259 249 232 230 227 225 225 221 218 211 214 211 213 234 224 220 211 258 242 236 233 236 238 234 221 216 215 224 232 217
140 170 196 204 223 235 245 249 256 266 264 259 262 257 255 245 238 229 223 225 219 216 210 213 209 208 215 225 219 224 231 225 200 232 233 234 230 214 216 224 218 207 214
170 180 203 199 212 224 264 262 260 272 279 278 270 266 253 248 240 229 221 224 223 216 211 212 210 211 208 236 234 240 251 220 167 246 205 233 238 222 207 211 211 203 205
173 157 152 158 139 100 303 292 300 295 285 288 287 264 249 239 236 225 221 220 222 218 216 207 207 212 205 219 223 221 248 239 226 250 65 241 225 217 209 206 214 210 206
300 127 127 117 128 88 8 5 351 320 310 310 302 272 250 235 230 223 216 214 215 217 211 209 207 210 211 220 213 237 254 240 231 234 258 211 213 203 208 206 209 201 202
Height
767 772 777 780 782 786 790 794 796 799 801 804 807 810 811 813 814 816 818 819 822 823 823 825 826 827 829 829 830 830 831 833 835 837 838 840 841 842 843 844 846 848 850
764 771 776 780 783 787 791 795 798 801 803 806 809 812 814 815 817 819 821 821 824 826 826 826 827 829 830 830 831 831 834 834 836 838 840 841 843 844 845 847 848 850 853
769 772 776 780 785 789 793 796 801 803 806 809 811 814 817 818 819 822 823 824 825 828 827 828 829 830 831 832 832 833 834 835 837 838 840 843 844 846 848 849 849 851 854
768 774 778 781 787 790 793 797 801 805 809 812 814 816 817 820 821 823 824 826 827 829 829 829 831 832 833 834 833 834 835 837 840 842 843 844 847 848 849 851 851 853 856
767 774 779 783 788 792 794 798 802 806 810 814 816 818 819 820 822 823 824 827 828 829 829 830 832 833 834 835 836 836 838 839 840 842 844 847 847 850 851 853 855 856 857
767 773 781 785 789 793 796 799 803 807 811 814 816 818 820 821 823 824 824 827 829 830 830 831 832 834 835 836 836 837 838 840 843 844 846 848 847 850 852 854 857 858 859
767 774 781 786 790 794 797 800 803 807 811 814 815 818 819 821 822 823 824 826 828 830 830 831 833 834 836 836 837 838 839 842 844 844 845 846 849 850 853 856 857 859 860
769 776 782 787 791 796 798 800 803 807 810 812 815 817 818 819 821 821 823 825 826 828 829 832 833 834 836 836 838 839 839 841 844 845 845 846 849 851 853 856 858 860 860
771 776 782 788 793 796 798 800 803 805 808 810 812 814 816 819 820 821 823 824 824 827 828 831 833 834 836 836 838 839 839 840 843 845 846 847 850 851 853 856 858 860 861
772 777 783 789 792 795 798 799 801 804 807 808 811 813 815 816 818 821 822 824 824 826 827 830 832 834 835 837 837 839 839 841 842 846 845 847 849 851 854 856 858 861 862
774 776 783 789 791 793 794 795 797 801 804 806 809 812 813 815 817 820 823 824 825 826 827 828 831 834 835 836 838 838 840 841 842 843 844 845 849 851 854 856 858 860 863
774 777 782 786 788 789 794 798 800 799 798 802 806 810 813 815 817 820 823 822 825 825 827 827 830 832 835 836 837 839 840 842 844 843 845 845 849 851 854 856 858 860 862
774 777 780 782 785 793 802 802 803 806 803 799 804 807 812 814 815 817 820 823 824 824 824 825 828 830 833 835 836 836 839 841 842 843 844 845 848 851 853 856 858 860 862
772 774 778 779 785 798 802 806 805 805 805 799 799 804 808 811 813 815 818 820 822 823 824 825 825 828 831 833 834 836 838 839 839 841 842 845 847 849 852 855 858 859 861
769 773 777 778 786 797 801 796 803 802 801 796 793 798 804 807 810 813 816 818 821 822 823 824 824 826 829 831 832 834 835 836 838 839 836 845 845 848 851 854 857 858 860
769 774 777 779 784 793 798 802 803 800 799 802 805 794 800 805 809 812 814 816 818 821 823 823 824 825 828 831 831 831 832 835 836 838 840 841 844 847 850 852 855 857 859
770 775 778 779 780 786 791 795 796 794 791 799 800 793 798 802 806 810 811 814 816 818 821 822 822 824 826 829 830 832 834 834 836 837 839 839 841 844 847 851 853 855 857
769 774 777 779 780 780 783 785 787 788 786 786 788 792 795 799 802 806 808 811 813 816 818 820 820 821 823 827 829 831 832 833 835 836 837 840 842 841 844 848 851 853 855
769 772 776 778 779 781 783 783 784 785 786 788 789 790 793 795 798 802 805 807 809 813 815 818 818 819 821 825 828 829 832 833 833 835 835 838 840 840 842 844 847 851 854
768 772 776 778 781 783 785 786 786 786 786 787 788 789 790 791 792 797 800 804 807 810 812 814 815 816 819 823 828 829 831 830 831 832 833 836 838 836 839 841 842 846 849
764 771 776 779 781 782 784 785 785 785 786 786 786 786 787 790 792 792 796 799 803 807 808 810 811 814 819 823 827 828 829 829 829 830 831 833 835 836 836 839 841 843 846
762 769 774 778 780 782 784 783 784 784 784 784 782 782 784 786 788 789 792 795 799 801 804 807 809 812 818 823 824 827 828 827 826 826 828 829 831 833 834 835 837 835 842
762 768 770 774 778 780 781 782 783 783 782 780 779 779 779 781 784 786 788 791 794 797 800 803 806 810 815 820 823 825 827 826 824 824 825 826 827 830 830 831 832 834 837
761 765 770 773 774 777 780 780 781 780 779 778 777 777 777 778 778 781 785 788 790 792 796 800 803 807 811 816 822 823 823 822 823 825 823 822 824 826 827 828 829 830 834
759 758 767 773 774 775 777 778 779 778 777 775 772 771 772 773 774 777 781 783 786 789 791 796 800 804 806 815 819 820 821 820 821 822 822 821 822 822 824 826 829 830 833
766 762 767 772 774 774 776 777 777 777 775 772 769 767 767 768 771 773 777 779 782 784 788 793 797 801 806 812 815 818 820 820 819 820 820 819 820 820 822 823 825 827 829